Flag for U.S.A. Weather past 2 weeks in Redmond, Washington, U.S.A.

Now
64 °F

Partly sunny.


Feels Like: 64 °F
Forecast: 61 / 68 °F
Wind: 5 mph from Southeast

Location: Seattle Boeing Field

Current Time: Sep 23, 2014 at 9:49:21 AM

Latest Report: Sep 23, 2014 at 8:53 AM


Visibility: 10 mi

Pressure: 29.83 "Hg

Humidity: 81%

Dew point: 58 °F

Location of RedmondLocation

Historic Weather in Redmond — Graph

°F

Redmond temperature yesterday

Maximum temperature yesterday: 73 °F (at 4:53 PM)
Minimum temperature yesterday: 64 °F (at 6:53 AM)
Average temperature yesterday: 68 °F

Past Weeks' High & Low Weather Summary

 TemperatureHumidityPressure
High86 °F (Sep 15, 4:53 PM)87% (Sep 10, 5:53 AM)30.30 "Hg (Sep 10, 5:53 AM)
Low52 °F (Sep 14, 6:53 AM)17% (Sep 11, 4:53 PM)29.70 "Hg (Sep 17, 3:53 PM)
Average67 °F58%29.96 "Hg
* Reported Sep 8 8:53 AM — Sep 23 8:53 AM, Redmond, Weather by CustomWeather, © 2014

Note: Actual official high and low records may vary slightly from our data, if they occured in-between our weather recording intervals... More about our weather records

Advertising

Redmond weather history for previous 24 hours

 ConditionsComfort  
Time TempWeatherWind HumidityBarometerVisibility
8:53 AM
Sep 23
64 °FPartly sunny.5 mph81%29.83 "Hg10 mi
7:53 AM62 °FPartly cloudy.3 mph86%29.83 "Hg10 mi
6:53 AM62 °FPartly cloudy.No wind83%29.84 "Hg10 mi
5:53 AM62 °FPassing clouds.3 mph80%29.84 "Hg10 mi
4:53 AM63 °FPassing clouds.No wind78%29.86 "Hg10 mi
3:53 AM63 °FLight rain. Passing clouds.3 mph84%29.87 "Hg10 mi
2:53 AM64 °FLight rain. Overcast.6 mph81%29.86 "Hg10 mi
1:53 AM66 °FOvercast.5 mph68%29.90 "Hg10 mi
12:53 AM61 °FClear.5 mph78%29.90 "Hg10 mi
11:53 PM
Sep 22
66 °FPassing clouds.No wind65%29.90 "Hg10 mi
10:53 PM68 °FPassing clouds.No wind61%29.90 "Hg10 mi
9:53 PM69 °FClear.No wind59%29.91 "Hg10 mi
8:53 PM69 °FPassing clouds.No wind59%29.90 "Hg10 mi
7:53 PM70 °FScattered clouds.No wind57%29.92 "Hg10 mi
6:53 PM71 °FBroken clouds.6 mph53%29.92 "Hg10 mi
5:53 PM71 °FBroken clouds.3 mph53%29.93 "Hg10 mi
4:53 PM73 °FBroken clouds.No wind50%29.94 "Hg10 mi
3:53 PM72 °FBroken clouds.3 mph53%29.95 "Hg10 mi
2:53 PM72 °FOvercast.7 mph52%29.96 "Hg10 mi
1:53 PM72 °FBroken clouds.8 mph52%29.98 "Hg10 mi
12:53 PM71 °FBroken clouds.9 mph55%29.98 "Hg10 mi
11:53 AM71 °FPartly sunny.10 mph57%29.98 "Hg10 mi
10:53 AM68 °FOvercast.6 mph63%29.99 "Hg10 mi
9:53 AM65 °FMostly cloudy.3 mph76%30.00 "Hg10 mi
Weather by CustomWeather, © 2014

See weather overviewHow to use our weather pages